sat.trackr.live / text

‹ back to catalog

STARLINK-32791

NORAD 62530 · 2025-004V

PAYLOAD ACTIVE UNKNOWN

§ Identity

Operator
Country
US
Launch date
2025-01-08
Launch site
AFETR
Launch vehicle
Mass (kg)
RCS (m²)

Purposes: comms

External: N2YO · Heavens-Above · Gunter

§ Orbital elements

Epoch: 2026-09-21T05:20:04.014816Z

Period
94.27 min
Inclination
43.0002°
Eccentricity
0.0001856
Mean motion
15.27607475 rev/d
Perigee alt
481.7 km
Apogee alt
484.2 km
Semi-major
6,861.1 km
B*
6.1265e-4
RAAN
195.5290°
Arg perigee
267.9374°
Mean anomaly
92.1265°
Rev number
9,636

§ Raw data

STARLINK-327911 62530U 25004V   26264.22226869  .00016649  00000+0  61265-3 0  99922 62530  43.0002 195.5290 0001856 267.9374  92.1265 15.27607475 96369

JSON: /api/v1/satellites/62530 · /tle

For live sub-satellite position, see the globe view (requires WebGL).

§ Visibility from observer

Set your observer location to see the next 7 days of passes ≥ 10°. The values pass through the URL so the page stays shareable.

No JS? Fill the form by hand. The geolocation button needs JavaScript.